Simultaneous Nadir Overpasses (SNOs) Predictions

Prediction of SNOs between AQUA and NOAA-19 Satellite Orbit:

Table of predicted SNOs for the next 14.0 days since TLE Epoch: 11/21/2015
Index Date (AQUA) Time (AQUA) Lat,Lon (AQUA) SZA (AQUA ) Date (NOAA-19) Time (NOAA-19) Lat,Lon (NOAA-19) SZA (NOAA-19 ) Distance(km) Time Diff (sec)
1 11/21/2015 18:44:50 80.57,-137.12 101.88 11/21/2015 18:44:21 80.58,-137.26 101.91 2.77 29
2 11/21/2015 19:34:15 -80.53, 30.93 78.18 11/21/2015 19:35:19 -80.52, 31.05 78.22 2.56 64
3 11/24/2015 00:18:36 -80.57, -40.63 77.63 11/24/2015 00:18:35 -80.57, -40.68 77.62 0.92 1
4 11/26/2015 05:02:56 -80.60,-111.98 77.14 11/26/2015 05:01:50 -80.61,-112.14 77.09 2.97 66
5 11/26/2015 05:52:21 80.55, 56.21 102.79 11/26/2015 05:52:47 80.56, 56.14 102.79 1.42 26
6 11/28/2015 10:36:41 80.59, -15.27 103.27 11/28/2015 10:36:01 80.59, -15.22 103.28 0.92 40
7 11/28/2015 11:26:06 -80.54, 152.85 76.81 11/28/2015 11:27:02 -80.55, 152.70 76.81 2.95 56
8 11/30/2015 16:10:26 -80.59, 81.29 76.34 11/30/2015 16:10:17 -80.59, 81.15 76.32 2.58 9
9 12/02/2015 20:54:49 -80.73, 8.62 75.73 12/02/2015 20:53:35 -80.68, 8.50 75.73 5.33 74
10 12/02/2015 21:44:10 80.57, 178.05 103.99 12/02/2015 21:44:27 80.58, 177.91 104.01 2.79 17
11 12/05/2015 02:28:29 80.60, 106.57 104.38 12/05/2015 02:27:41 80.62, 106.42 104.42 3.04 48




NCC Satellite Simultaneous Nadir Overpasses (SNOs) Prediction Service
